This is the latest recevied weather packets stored in our database for station/object YO8SDE-8. If no packets are shown the sender has not sent any weather packets the latest 10 day(s).
| Time | Temp. | Humidity | Pressure | Rain* | Wind** | Luminosity | Snow |
|---|---|---|---|---|---|---|---|
| 1778167857 | 25.56° C | 37% | 999.8 hPa | 0 mm | - | - | - |
| 1778167557 | 25.56° C | 38% | 999.8 hPa | 0 mm | - | - | - |
| 1778167257 | 25.56° C | 38% | 999.8 hPa | 0 mm | - | - | - |
| 1778166957 | 25° C | 38% | 999.8 hPa | 0 mm | - | - | - |
| 1778166657 | 25.56° C | 37% | 999.8 hPa | 0 mm | - | - | - |
| 1778166357 | 26.11° C | 36% | 999.8 hPa | 0 mm | - | - | - |
| 1778166057 | 26.67° C | 35% | 999.8 hPa | 0 mm | - | - | - |
| 1778165757 | 27.78° C | 34% | 999.8 hPa | 0 mm | - | - | - |
| 1778165457 | 27.78° C | 34% | 999.8 hPa | 0 mm | - | - | - |
| 1778165157 | 27.78° C | 34% | 999.8 hPa | 0 mm | - | - | - |
| 1778164857 | 28.33° C | 33% | 999.9 hPa | 0 mm | - | - | - |
| 1778164557 | 28.33° C | 33% | 999.8 hPa | 0 mm | - | - | - |
| 1778164257 | 28.33° C | 33% | 999.9 hPa | 0 mm | - | - | - |
| 1778163957 | 28.33° C | 33% | 999.9 hPa | 0 mm | - | - | - |
| 1778163657 | 28.33° C | 32% | 999.7 hPa | 0 mm | - | - | - |
| 1778163357 | 28.33° C | 32% | 999.7 hPa | 0 mm | - | - | - |
| 1778163057 | 28.89° C | 33% | 999.6 hPa | 0 mm | - | - | - |
| 1778162757 | 28.89° C | 33% | 999.7 hPa | 0 mm | - | - | - |
| 1778162457 | 29.44° C | 33% | 999.7 hPa | 0 mm | - | - | - |
| 1778162157 | 29.44° C | 32% | 999.7 hPa | 0 mm | - | - | - |
| 1778161857 | 30° C | 32% | 999.7 hPa | 0 mm | - | - | - |
| 1778161557 | 30° C | 32% | 1000 hPa | 0 mm | - | - | - |
| 1778161257 | 29.44° C | 33% | 999.7 hPa | 0 mm | - | - | - |
| 1778160957 | 28.89° C | 33% | 999.9 hPa | 0 mm | - | - | - |
| 1778160657 | 28.33° C | 33% | 1000 hPa | 0 mm | - | - | - |
* Rain latest hour (hover to see other rain measurements)
** Current wind speed in m/s (hover to see current wind gust speed)